Theta_e
329 327 327 327 327 327 325 326 327 325 323 323 322 323 320 319 314 310 308 307 308 312 317 315 317 320 320 320 322 322 322 326 329 326 326 325 327 331 332 333 334 336 337 339 340 341 342 342 342 344 345 346 347 349 349 350 351 352 352 354 354 355 355 353 353 352 352 351 350 350 351 353 355 357
328 330 328 328 326 329 325 325 324 323 323 321 321 320 319 322 317 314 310 308 311 312 314 317 315 317 319 321 321 322 322 328 327 325 325 325 326 329 331 333 333 334 335 335 336 338 339 340 341 340 340 342 344 346 347 348 349 350 350 352 353 353 353 352 352 353 352 352 351 350 351 351 352 353
329 328 328 328 327 326 326 325 323 325 324 321 319 318 318 321 320 317 316 310 313 316 312 314 317 318 319 321 321 321 321 325 326 325 324 324 329 331 331 331 331 332 333 333 334 335 335 336 338 338 338 339 341 343 344 345 346 347 349 350 351 351 350 350 350 351 352 352 351 349 349 350 351 352
329 328 328 328 327 326 325 324 324 324 324 323 319 318 317 316 317 319 317 314 312 315 315 316 318 319 319 320 319 319 321 323 328 323 323 324 330 327 326 330 331 331 331 332 332 333 333 335 336 337 338 339 341 342 342 342 343 345 347 348 349 350 349 347 347 349 350 351 350 349 349 349 350 351
329 329 328 328 328 327 324 324 324 323 322 322 320 319 316 315 315 317 316 313 312 314 316 317 317 319 319 319 320 319 319 320 320 325 323 323 323 324 325 327 331 332 331 331 331 332 333 334 335 336 337 338 339 341 342 341 341 342 343 344 345 346 347 345 344 347 348 349 349 349 349 349 348 349
329 328 327 326 327 326 325 324 323 323 322 320 318 317 317 315 315 316 314 313 312 312 314 315 318 318 320 317 320 318 318 318 321 320 321 322 323 324 325 326 328 332 332 330 330 331 331 333 334 334 336 336 337 338 338 338 338 339 339 340 340 341 341 341 342 344 345 347 348 348 348 348 348 348
328 326 326 326 326 327 324 324 323 323 321 321 319 318 318 316 316 316 316 314 312 312 313 316 317 318 319 318 318 320 320 320 320 319 320 321 323 325 325 326 327 331 331 330 330 330 331 333 333 334 335 335 334 334 334 334 335 335 336 336 338 338 338 338 340 342 343 345 346 348 347 346 347 347
328 327 325 326 326 326 324 323 322 322 321 320 320 319 318 317 317 317 316 316 315 314 313 316 317 319 318 319 320 320 320 319 319 319 320 321 321 322 324 324 325 329 330 331 330 330 331 331 332 332 332 332 331 330 330 331 332 332 332 332 333 334 334 335 336 340 339 340 343 345 345 346 345 342
329 327 327 327 326 324 323 323 322 321 320 320 320 319 318 317 317 318 318 317 316 315 315 316 319 320 319 320 319 320 317 317 318 319 319 319 320 321 322 324 327 330 330 331 331 331 331 331 331 331 332 331 330 329 329 329 329 330 330 330 331 331 332 333 332 334 335 336 337 337 339 341 343 342
329 328 327 327 326 324 322 322 322 322 320 320 319 318 318 318 318 317 316 317 316 316 316 317 318 320 319 318 318 318 318 316 316 317 318 319 319 319 319 320 323 325 326 327 329 330 332 334 332 331 332 331 330 329 328 327 326 326 326 325 325 328 329 330 332 332 331 332 334 335 336 338 338 340
328 327 327 327 325 324 323 323 322 321 320 320 319 320 319 319 317 316 316 316 316 316 316 318 320 320 321 319 316 317 318 317 317 315 315 314 317 317 317 318 321 323 324 327 330 330 331 332 334 332 330 331 331 330 329 327 325 324 323 322 322 323 324 325 328 330 329 330 330 330 330 332 336 338
327 327 327 326 326 325 324 323 323 322 321 320 319 320 319 319 318 317 317 316 316 316 317 318 319 320 319 318 318 318 316 314 314 316 314 312 313 315 317 318 319 321 322 323 325 328 330 331 333 331 331 332 331 330 330 330 329 326 323 322 324 324 323 323 325 326 326 325 325 326 326 327 330 334
326 326 326 326 326 328 329 326 324 323 321 321 319 319 319 319 318 317 315 315 316 317 319 319 320 319 318 317 315 314 313 312 312 315 315 314 314 315 315 317 319 321 321 322 323 325 328 330 333 337 338 338 335 333 332 334 334 330 324 323 325 325 324 322 323 324 324 324 324 323 324 325 328 331
325 325 325 328 332 329 326 325 324 321 320 319 321 322 319 319 318 317 316 316 318 319 318 318 318 317 317 317 315 314 314 315 316 315 314 312 313 314 314 315 318 322 322 322 322 324 328 330 332 336 337 340 340 338 336 335 335 333 328 326 324 325 325 323 322 322 322 322 322 322 321 323 326 327
325 325 326 325 329 331 329 329 326 324 321 321 319 318 318 319 320 317 316 318 320 319 319 319 319 318 317 317 317 315 315 316 315 314 313 313 313 311 311 310 315 321 322 322 322 323 329 332 331 334 336 339 340 340 339 336 334 330 329 327 326 325 325 325 324 323 321 321 321 321 320 321 323 324
324 325 325 326 326 326 326 325 325 326 325 322 320 319 318 317 316 318 320 320 319 319 319 319 319 319 318 318 318 317 316 315 315 314 314 313 312 311 311 312 312 318 322 320 319 319 323 326 327 329 333 337 340 341 337 334 334 331 329 328 328 326 326 325 326 326 324 323 323 324 323 323 324 324
324 324 324 324 325 325 327 330 326 324 324 322 320 318 318 317 316 317 317 317 321 321 320 320 320 320 320 318 318 319 318 318 315 314 313 313 313 313 312 313 314 317 321 320 319 318 321 324 324 325 330 335 339 341 336 334 334 331 329 329 329 328 326 325 326 326 325 324 323 323 323 322 322 322
323 322 322 322 322 323 324 324 323 322 320 320 320 320 319 319 320 318 317 316 315 317 320 320 319 321 321 319 319 321 320 317 316 315 313 314 313 313 313 315 316 318 321 318 318 317 319 323 323 323 327 333 337 340 337 333 331 331 329 328 327 327 326 325 325 324 325 324 323 322 320 320 320 320
322 322 322 322 322 323 322 323 324 322 320 319 319 318 318 319 319 319 320 321 321 322 321 320 320 320 320 319 319 319 320 320 319 318 315 315 314 315 316 316 317 318 321 320 319 314 318 322 321 322 324 329 334 339 335 333 331 330 328 328 327 326 325 325 325 324 323 323 322 321 319 318 318 317
320 321 322 322 322 322 322 321 319 321 322 319 318 317 317 317 318 319 318 318 320 321 320 320 320 320 321 317 320 320 319 318 317 317 318 316 315 314 313 312 315 317 321 322 320 317 317 321 320 321 325 329 332 337 340 334 330 329 328 328 327 326 324 323 324 323 323 323 322 321 318 316 315 314
321 322 322 322 321 321 321 320 318 318 318 319 318 318 318 318 317 316 318 317 315 314 312 311 311 311 312 312 312 312 312 315 315 316 314 312 314 312 311 312 313 315 318 321 322 320 318 320 320 320 322 324 328 334 338 341 333 328 327 326 326 324 323 322 322 322 323 322 322 322 320 316 314 315
320 321 329 329 324 323 323 319 315 316 319 319 319 318 316 314 313 315 318 320 318 314 313 313 313 313 313 313 312 312 312 312 313 315 312 313 314 312 313 311 313 315 318 320 324 320 318 320 321 320 322 325 328 333 337 340 339 331 325 325 325 323 322 322 320 322 322 322 322 321 319 316 314 318
319 319 322 323 321 320 319 312 310 311 316 320 318 314 312 312 313 316 315 313 312 313 314 315 316 316 315 318 319 320 315 314 315 318 317 317 315 313 313 313 314 312 315 320 324 319 319 319 321 321 320 320 327 334 337 338 340 340 336 333 329 323 323 322 319 318 319 320 320 320 317 314 314 321
317 315 315 319 318 315 313 308 307 308 310 315 313 312 312 314 313 314 311 313 312 313 315 315 316 316 317 317 318 318 318 319 321 319 318 318 317 314 314 314 314 312 314 320 324 320 320 321 319 323 322 320 322 330 336 337 338 340 339 336 333 327 324 322 318 316 316 317 317 318 316 313 315 323
313 314 314 314 316 312 311 307 301 302 303 307 310 313 313 314 314 308 308 311 313 314 315 315 315 315 316 316 316 316 316 317 318 319 317 318 318 316 315 314 314 314 317 321 324 322 319 320 319 323 324 324 326 328 332 336 338 339 339 338 336 335 329 328 325 326 316 313 313 313 313 313 312 322
311 312 312 313 315 311 308 306 301 299 301 304 311 314 307 306 305 308 313 313 313 312 313 313 314 313 313 313 313 314 315 316 318 316 316 317 318 318 318 317 316 314 316 323 321 324 321 320 322 323 326 326 326 329 329 330 335 339 339 339 339 337 331 330 329 329 326 323 319 314 316 312 314 316
311 311 312 314 316 308 302 300 300 300 301 305 308 305 302 304 307 310 311 312 310 310 311 312 311 311 311 310 311 312 312 313 314 315 316 317 318 319 320 322 323 322 323 325 327 326 324 322 327 326 327 329 328 329 328 328 331 337 337 339 340 338 333 333 330 330 329 325 325 314 312 311 312 315
310 310 311 312 305 301 298 298 299 301 304 312 305 301 303 306 308 310 310 308 308 309 309 309 308 308 309 310 309 311 312 313 314 315 316 317 318 318 319 321 325 329 327 327 328 328 328 326 328 331 330 331 329 328 327 331 331 333 334 338 340 338 334 334 333 332 331 328 326 319 318 316 315 316
313 309 304 301 301 301 300 301 303 305 305 303 303 304 307 309 306 307 306 306 306 305 305 307 307 307 308 309 310 311 312 314 315 315 315 317 317 318 319 320 324 327 329 330 329 329 329 330 330 332 332 332 330 330 330 329 332 333 335 335 334 335 334 335 336 334 332 327 327 320 319 319 317 319
308 306 305 307 309 308 309 314 316 317 313 309 309 309 309 304 304 305 305 304 304 303 304 306 306 306 307 308 309 312 312 311 311 312 313 313 314 315 316 316 319 322 327 330 331 331 328 327 328 330 331 333 333 331 332 331 331 334 335 335 336 336 335 335 335 336 333 327 325 323 323 324 321 320
307 310 312 310 308 309 311 312 310 310 311 309 307 305 305 305 304 306 305 304 303 305 303 305 305 306 307 308 309 308 309 309 311 312 313 312 312 314 314 315 316 317 321 326 329 331 331 331 330 329 330 332 333 333 334 333 331 332 334 337 335 331 331 334 335 335 333 330 327 325 324 325 323 324
306 309 312 311 311 311 308 306 304 304 305 305 305 302 303 304 307 307 306 305 305 304 304 304 305 306 305 305 306 307 307 308 310 311 311 311 311 313 313 312 312 315 317 320 323 325 329 331 332 334 334 334 332 333 333 332 331 332 333 334 335 335 333 332 333 335 334 331 327 324 324 325 324 323
307 307 306 307 305 305 305 303 301 301 300 302 301 302 302 303 303 303 303 300 300 302 303 302 303 303 303 303 305 306 306 307 308 310 309 310 309 311 312 311 312 313 313 316 319 321 322 323 332 334 334 335 333 333 330 327 330 331 331 333 333 334 333 334 334 334 332 330 327 326 324 326 327 325
304 303 301 302 302 302 300 300 299 299 299 300 299 300 301 302 302 302 301 300 299 301 302 302 302 301 302 302 302 303 304 306 307 308 308 308 309 309 309 309 311 312 314 315 317 319 319 321 325 333 326 318 317 318 324 329 328 330 332 333 333 334 335 334 335 335 332 331 329 326 325 325 328 329
303 301 301 300 301 301 300 299 299 298 299 299 299 297 298 298 300 301 299 298 299 300 301 301 301 301 301 301 301 302 303 305 306 306 307 308 307 308 308 308 310 311 312 314 316 318 319 319 321 326 320 321 319 317 317 318 324 330 332 333 335 335 335 335 336 335 333 333 332 328 327 327 328 331
300 300 299 299 299 299 299 298 299 298 298 298 297 296 297 296 298 297 297 297 297 298 299 299 300 300 300 300 301 302 302 304 304 304 305 305 306 307 308 309 310 310 312 314 315 318 319 318 317 322 321 321 321 317 314 314 313 310 321 331 334 335 335 335 336 336 334 333 333 332 327 327 328 331
299 298 298 297 298 298 298 298 298 298 298 298 297 296 296 295 294 295 296 297 297 299 299 298 298 299 300 300 300 301 301 302 302 303 303 304 305 306 306 308 310 310 310 313 316 317 318 317 316 314 320 322 321 319 313 316 312 310 308 315 325 334 334 334 334 333 335 334 333 333 332 331 330 332
298 298 298 299 298 299 299 299 300 298 297 298 296 297 294 294 293 294 295 295 296 297 297 296 297 298 298 299 298 298 299 300 301 301 302 303 303 304 305 305 307 308 309 313 315 317 318 317 316 314 312 317 322 316 310 312 313 312 307 308 318 324 330 332 330 332 332 333 334 334 335 332 333 334
299 300 299 298 299 299 298 298 297 296 295 296 295 296 293 292 292 293 294 295 295 295 295 295 296 297 297 297 298 298 298 298 299 299 301 302 302 303 304 305 306 307 309 311 313 315 316 315 316 316 314 311 311 312 312 310 310 313 310 304 313 322 320 324 330 331 331 331 332 333 335 332 330 329
300 300 299 299 298 297 297 297 296 295 294 294 293 294 292 292 291 292 293 294 294 294 294 295 296 295 295 296 296 296 297 298 298 298 300 301 302 304 304 306 306 306 307 310 311 313 314 315 316 316 316 316 316 316 316 315 315 317 316 312 304 309 313 319 323 327 329 331 332 330 329 329 330 329
298 296 296 297 296 296 296 295 293 294 293 293 293 294 291 290 289 291 292 293 294 292 293 292 293 293 294 295 296 296 296 297 297 298 300 300 302 303 304 305 304 305 306 307 309 311 313 316 321 316 320 318 320 321 316 312 310 312 314 315 308 306 307 310 313 315 317 320 327 330 329 327 327 326
297 295 295 294 294 294 293 293 292 291 291 292 290 290 289 290 290 292 292 293 290 293 291 292 292 293 294 294 295 296 296 296 296 297 298 298 299 300 303 303 303 304 304 305 307 310 315 319 321 319 318 317 315 312 309 310 310 311 313 315 318 312 310 309 309 311 313 314 321 326 326 325 325 324
298 296 297 298 296 294 292 292 291 291 290 290 290 289 287 287 286 288 287 288 288 290 290 290 291 292 292 294 295 296 296 296 296 296 297 297 298 298 299 301 303 304 305 306 309 312 315 317 318 318 318 316 314 313 310 310 311 312 312 313 315 317 318 315 312 311 312 311 310 311 315 321 322 320
296 296 294 294 292 291 290 290 289 289 289 288 289 288 288 287 287 286 286 287 287 288 289 290 290 291 292 294 296 295 296 296 296 296 296 297 298 299 299 300 303 303 305 305 307 310 313 316 317 318 316 315 316 314 312 312 311 312 312 313 314 315 314 317 318 315 315 314 312 311 311 310 310 311
297 293 294 292 291 290 290 289 289 288 286 286 286 287 288 286 287 286 286 287 287 287 289 288 289 291 292 294 295 294 296 298 296 296 297 297 297 298 299 300 300 301 303 304 305 307 310 314 316 316 316 316 316 315 316 315 314 313 313 313 313 314 314 315 314 314 314 315 313 311 311 312 312 311
Wind_Speed
4 3 4 4 4 4 3 2 3 3 2 3 3 4 5 4 2 2 2 3 2 4 0 2 4 2 3 6 6 6 6 10 13 9 9 9 9 12 18 19 19 20 21 20 19 19 21 22 22 24 24 24 24 24 23 23 23 23 23 23 24 23 23 22 21 21 21 21 21 20 20 20 19 19
4 4 3 3 5 4 3 4 3 3 4 4 4 4 3 5 6 5 3 5 3 4 3 3 4 4 8 7 8 7 8 11 13 8 9 10 10 16 19 20 20 20 21 20 20 20 20 21 22 22 22 23 24 24 23 23 23 23 23 23 23 23 23 22 21 21 21 21 21 20 20 20 20 19
4 4 5 4 5 4 4 4 3 3 3 4 4 4 3 4 5 5 4 4 4 4 4 4 4 6 7 8 8 8 8 9 11 9 9 10 15 21 16 19 20 20 20 20 20 20 20 20 21 21 21 22 23 23 24 24 24 23 23 23 23 23 22 22 22 21 21 21 20 20 20 20 20 19
4 4 4 4 5 4 4 4 4 5 4 4 5 5 5 4 4 4 4 6 9 4 5 7 8 8 8 8 10 10 8 8 13 8 9 11 17 12 10 14 19 19 19 20 20 19 19 20 21 21 21 22 23 23 24 24 24 24 24 24 24 23 22 22 22 22 21 21 20 20 20 20 19 19
4 5 5 5 5 4 4 5 5 5 5 4 5 4 5 5 4 5 5 6 9 6 4 5 6 7 7 9 8 10 9 9 8 9 9 9 10 11 10 11 15 19 19 19 19 19 19 20 20 21 21 22 22 23 24 24 23 23 23 23 23 23 23 22 21 22 22 22 21 20 20 20 19 19
4 5 5 6 6 4 5 5 5 6 5 5 6 5 6 6 6 5 5 6 4 9 4 5 5 6 4 8 9 9 11 10 9 10 11 9 8 9 10 10 11 18 19 19 20 20 19 19 20 21 22 22 22 23 23 23 23 23 23 23 23 23 22 22 22 21 22 21 21 21 20 20 19 19
5 4 5 6 5 4 4 5 6 5 6 5 6 7 6 6 7 5 7 5 6 8 8 4 6 7 6 6 10 10 9 9 9 10 10 10 9 8 10 11 10 16 19 20 20 20 20 19 20 20 22 22 22 22 22 23 22 22 22 23 23 23 23 22 22 22 22 21 21 21 21 20 20 19
5 6 6 6 6 5 5 6 6 6 6 6 6 6 6 6 7 7 6 7 7 5 7 7 6 7 8 9 8 9 8 9 9 9 10 10 10 11 10 11 11 13 19 20 20 20 20 20 20 20 21 21 21 21 22 22 22 22 22 22 22 22 22 22 22 23 22 22 21 21 20 20 20 19
5 5 6 7 5 5 6 6 6 6 7 7 6 7 7 7 7 6 6 7 6 6 8 9 8 7 8 9 8 8 9 9 8 8 10 11 10 11 10 9 10 15 18 19 19 19 19 20 20 20 20 20 21 21 21 21 22 22 22 22 22 22 22 22 22 22 22 21 21 20 20 20 19 19
5 6 6 6 6 5 6 7 7 6 7 6 6 7 7 7 7 7 7 6 4 5 8 8 10 8 9 9 8 8 6 9 11 10 9 9 10 10 11 10 9 9 9 9 11 13 15 15 19 21 20 20 21 21 21 21 21 22 21 21 21 21 21 21 21 21 21 21 20 20 19 19 19 18
5 5 6 6 6 6 7 7 7 7 7 6 8 8 8 8 7 7 7 4 5 7 7 8 9 10 9 8 10 9 6 8 8 12 12 10 8 10 10 12 10 9 11 14 18 17 16 17 15 15 18 20 21 21 21 21 21 21 21 21 20 20 20 21 21 21 20 20 20 19 19 19 19 18
6 6 6 6 6 7 7 7 7 6 7 6 7 7 6 6 6 7 7 6 7 7 7 9 9 8 9 9 8 8 6 7 7 6 9 14 12 12 11 10 12 11 11 12 12 12 13 13 15 18 18 19 20 21 21 22 21 22 21 20 20 20 20 20 20 21 20 20 20 19 19 18 18 18
5 5 6 6 6 7 10 12 11 9 8 6 7 7 5 6 7 7 6 6 6 7 8 9 7 8 9 9 10 9 8 8 10 10 9 12 12 11 12 13 10 10 12 12 11 11 9 10 9 8 8 9 14 17 20 17 21 21 20 20 20 20 20 20 21 21 21 20 20 19 19 19 19 18
5 6 6 6 11 12 12 13 13 13 13 12 9 8 6 6 6 6 6 7 7 7 9 9 8 9 10 10 10 10 9 9 10 11 10 11 13 12 12 13 10 8 8 10 12 11 8 9 9 8 9 8 10 9 10 11 13 17 21 20 19 20 20 20 21 21 20 20 20 20 19 19 19 19
6 5 5 6 8 9 10 10 13 13 12 12 12 12 12 10 8 6 7 8 7 7 8 8 9 12 12 11 10 10 11 8 10 11 10 11 12 12 13 16 15 6 7 8 9 11 8 7 9 8 8 9 8 9 10 14 18 20 19 20 21 21 21 21 21 21 21 20 20 20 20 19 19 19
5 6 6 6 5 5 7 7 6 8 10 10 10 11 11 11 12 12 9 8 7 8 9 9 10 10 10 11 9 11 10 11 9 10 11 11 12 13 13 13 14 12 8 12 13 14 11 9 10 11 10 9 8 10 12 17 19 19 19 19 21 21 21 22 22 22 21 21 21 21 21 20 19 19
5 5 6 6 6 5 8 7 5 5 5 7 9 10 11 11 12 12 14 14 12 8 9 11 11 12 11 12 11 11 11 9 11 12 12 12 12 12 14 15 15 15 10 11 12 14 12 8 9 10 10 9 9 10 14 19 19 19 20 21 21 21 21 21 22 22 22 21 21 21 21 20 20 20
5 5 6 6 7 6 5 5 5 5 5 5 5 5 5 6 9 10 12 13 15 14 10 10 13 14 10 11 12 12 11 11 12 13 15 15 14 15 16 18 18 16 12 13 12 14 14 10 9 11 10 9 9 10 13 17 19 20 20 20 20 21 21 21 21 21 21 21 21 21 20 20 20 20
5 5 6 5 7 7 6 6 6 5 5 4 5 6 7 6 7 7 7 6 5 6 7 9 10 13 12 11 12 11 11 12 12 12 16 17 17 17 18 17 16 17 14 13 12 16 12 8 9 11 9 9 10 9 13 17 18 20 20 20 20 20 21 21 21 21 21 21 21 21 20 20 20 20
5 4 5 6 6 6 6 9 11 8 5 4 6 7 7 6 7 7 8 8 7 7 8 8 10 10 12 13 12 13 13 13 14 13 14 14 14 15 15 16 13 14 11 12 13 13 13 10 10 11 8 8 10 9 9 13 18 19 20 20 20 20 20 21 21 21 21 21 21 20 20 20 19 19
3 4 4 5 5 5 6 9 11 9 6 5 6 7 8 8 7 9 7 7 11 13 13 14 15 17 18 19 20 21 23 17 15 11 12 15 13 13 17 17 15 15 11 10 12 13 13 11 10 10 9 9 10 10 9 8 13 19 19 20 20 20 20 20 20 20 20 21 20 20 20 19 18 18
3 5 9 7 5 6 6 8 8 7 5 6 6 6 6 7 8 9 5 5 5 7 12 14 16 18 18 18 19 20 19 19 16 10 13 17 14 16 16 18 17 16 13 11 10 12 13 9 8 9 8 7 10 10 9 8 9 14 16 19 20 20 20 20 20 20 20 20 20 19 19 18 17 12
4 4 4 7 7 6 7 8 9 8 7 5 5 4 4 7 9 7 5 7 9 10 10 9 8 10 10 9 10 12 17 19 17 13 13 14 14 17 18 18 17 17 14 10 12 12 10 10 10 8 5 8 9 8 9 9 9 8 8 9 12 17 19 19 19 19 19 20 20 20 19 18 14 10
4 4 5 6 6 7 6 5 5 4 5 5 4 3 4 6 8 4 6 7 7 9 9 10 10 11 11 10 10 10 11 13 14 14 13 13 14 16 18 18 16 16 15 6 14 12 10 10 9 10 10 7 6 4 8 8 8 8 8 8 8 12 16 16 15 19 19 19 19 18 17 16 16 9
5 6 6 5 5 6 5 4 5 5 5 6 4 4 4 4 6 7 6 8 9 8 9 9 9 9 8 9 9 9 10 11 11 12 14 14 14 15 17 19 18 17 16 11 15 12 11 9 10 8 9 9 7 2 2 6 7 8 8 9 9 7 8 9 7 9 12 15 15 16 15 17 19 15
5 5 5 5 6 6 4 4 8 8 7 7 5 4 6 7 8 7 6 6 6 7 7 8 8 8 8 9 9 10 10 11 12 13 14 15 16 15 16 18 19 16 15 9 20 14 11 9 11 10 9 10 10 9 4 2 3 6 7 8 9 8 9 8 8 8 7 8 8 10 13 18 18 20
6 4 5 6 7 7 9 9 9 7 6 5 5 5 4 6 9 7 3 5 6 6 7 7 8 8 8 9 10 11 11 12 14 14 14 17 17 17 17 19 17 14 13 6 13 13 11 8 8 11 10 9 8 7 8 6 3 4 5 7 7 7 7 7 9 9 8 8 8 13 13 16 19 20
5 5 4 6 11 12 10 9 6 5 7 3 3 4 5 6 6 4 4 4 5 6 7 7 8 8 8 9 10 11 12 13 14 15 15 16 17 17 16 19 17 11 8 6 8 11 10 9 7 8 9 8 9 9 7 6 3 5 8 6 6 6 7 8 8 7 7 7 6 8 9 9 9 10
3 5 9 11 12 10 6 0 4 3 1 4 6 5 4 4 4 4 4 5 5 6 6 7 8 8 8 9 10 12 12 14 13 13 14 15 16 15 17 17 15 10 6 4 5 7 8 9 8 6 8 8 8 7 7 6 6 5 6 7 4 6 7 8 7 8 8 7 8 10 13 12 10 9
6 8 8 8 4 6 7 4 2 2 2 3 4 6 5 3 3 3 4 5 5 6 7 7 8 9 9 10 11 12 11 11 11 12 14 15 16 17 18 18 15 12 7 3 2 6 8 8 7 6 6 7 8 8 8 7 6 5 5 7 5 3 4 6 7 7 8 9 9 11 11 8 11 11
4 4 4 2 5 9 9 8 6 5 5 3 4 4 3 3 4 3 3 4 5 6 7 7 8 9 9 9 10 10 11 11 11 12 12 12 14 15 15 15 12 11 10 6 3 3 5 7 9 9 9 6 8 9 7 7 6 5 6 5 7 7 6 8 6 6 6 8 8 8 8 7 8 11
3 2 2 4 3 3 4 5 4 5 3 3 3 3 4 3 4 5 5 4 3 4 5 6 7 7 8 9 10 11 10 10 11 11 12 12 14 14 13 13 13 12 10 8 7 6 5 5 5 7 11 8 7 6 6 6 6 5 5 5 5 3 5 9 8 7 7 7 8 9 8 8 9 8
1 1 4 3 4 4 3 3 4 4 4 3 2 3 3 4 4 4 5 6 7 6 6 7 7 8 8 9 9 10 10 11 11 11 12 12 12 14 13 13 12 12 12 10 8 8 7 6 5 5 6 5 4 5 6 5 5 5 6 6 6 4 5 5 7 6 6 7 8 9 8 7 7 7
3 4 3 4 3 3 3 2 2 2 2 2 3 3 4 4 4 5 5 5 6 6 6 6 7 8 8 9 9 10 10 11 11 11 11 12 12 12 14 14 14 13 13 11 9 8 8 7 6 4 6 9 9 7 0 5 6 6 5 4 6 7 5 5 6 7 8 8 9 8 6 6 8 8
2 3 4 3 3 2 1 1 1 2 2 3 3 4 4 3 4 5 5 6 6 6 6 6 6 7 7 8 9 9 10 11 11 11 10 10 11 11 13 13 15 16 13 12 11 9 8 7 6 1 5 5 7 6 14 7 2 1 4 6 5 6 5 5 6 7 7 6 6 9 9 8 9 8
3 2 3 2 2 1 2 2 2 3 3 3 3 4 4 5 4 5 6 6 6 6 6 7 7 7 8 8 8 9 9 10 10 10 11 10 11 11 12 12 12 13 13 12 11 10 8 6 6 3 4 4 5 5 3 12 11 4 1 3 5 5 5 6 7 7 8 7 8 8 9 10 8 7
3 2 2 2 1 2 2 2 3 3 4 4 4 5 4 4 5 5 5 5 5 5 6 6 6 7 7 8 8 8 9 9 10 10 10 11 10 9 10 11 11 12 13 13 12 10 9 9 8 8 4 4 4 4 4 1 8 11 3 1 2 3 6 5 6 7 8 9 8 8 8 7 7 7
3 2 2 2 2 2 2 3 3 3 4 3 3 3 4 4 4 5 5 5 6 5 6 6 6 7 7 7 8 9 9 9 8 9 9 9 11 11 10 11 11 11 12 12 12 12 10 9 11 9 7 3 6 5 4 3 4 9 11 2 3 2 2 5 7 8 7 7 8 8 7 6 8 8
3 2 1 1 1 1 2 3 3 3 3 4 3 4 4 4 5 5 5 5 5 6 6 6 7 7 8 8 8 8 9 9 10 10 10 10 9 10 10 10 10 10 10 11 12 12 12 13 12 11 10 9 6 3 4 7 6 2 10 14 2 3 2 3 6 6 7 6 5 4 5 0 2 4
2 2 1 2 1 2 2 2 2 2 2 3 3 3 4 4 5 5 5 5 6 6 6 6 7 7 7 8 8 8 8 8 9 9 9 9 9 9 10 10 9 9 9 11 13 12 13 13 13 11 9 7 4 5 7 8 6 4 8 14 16 8 2 1 1 2 5 6 5 5 5 4 4 2
2 3 1 1 1 2 2 2 2 2 3 3 4 4 4 4 4 5 4 5 5 6 6 6 6 7 7 8 8 8 8 9 9 9 9 10 9 9 10 10 8 8 8 9 10 11 12 11 12 15 12 9 7 3 0 7 11 8 8 7 10 13 14 10 5 3 2 1 2 6 6 6 5 5
3 2 1 1 2 2 3 3 3 3 3 3 3 4 3 3 4 6 5 5 5 5 5 6 7 7 7 7 8 8 8 8 9 9 9 9 10 10 10 8 9 9 8 7 8 8 9 9 8 8 9 8 9 10 12 10 7 7 6 4 4 8 14 17 17 14 8 4 1 2 2 2 3 5
2 2 2 2 3 3 3 3 2 2 2 3 3 4 4 4 4 5 5 6 6 6 6 6 7 7 7 7 7 7 7 8 9 9 9 9 9 9 10 9 8 7 7 7 6 6 7 8 9 9 8 9 9 9 10 10 8 7 7 6 7 5 7 11 17 19 20 18 11 5 1 1 2 4
3 2 2 4 5 3 3 2 2 3 2 3 3 3 3 3 4 4 4 5 5 6 6 6 6 7 7 7 7 7 7 8 8 8 9 9 8 8 8 9 9 8 7 7 7 7 8 8 8 7 8 9 8 8 9 9 10 8 7 7 6 7 9 8 8 12 16 20 20 15 10 7 6 5
2 3 5 5 5 4 2 1 1 2 2 2 2 3 2 2 2 3 4 4 5 5 6 6 6 7 7 7 7 8 8 8 8 8 8 8 8 8 8 9 9 9 8 8 7 8 7 6 7 7 7 8 8 8 9 9 9 8 9 9 10 8 8 8 10 11 11 11 14 17 15 11 12 14
Wind_Direction
244 246 242 228 241 246 232 232 217 218 201 200 188 178 188 179 220 278 284 276 265 300 263 304 290 267 320 317 307 306 299 302 310 309 307 301 299 297 298 297 295 292 288 283 276 269 264 260 256 253 250 248 246 245 244 245 245 244 241 237 236 234 232 229 227 226 226 225 226 226 227 228 228 226
231 234 246 228 231 241 233 234 229 205 200 185 191 194 187 167 194 212 239 270 231 271 286 222 270 314 318 315 308 307 301 299 307 299 300 301 298 296 295 295 294 293 289 285 279 273 266 261 258 255 251 248 247 245 243 243 243 243 243 241 237 235 232 228 226 226 225 225 225 225 226 227 229 230
217 232 238 228 230 230 223 230 232 217 193 205 194 198 164 184 185 209 220 274 266 207 263 277 269 291 299 303 300 300 298 298 302 300 298 298 295 300 298 294 291 289 287 284 279 273 266 260 257 255 251 248 246 244 243 243 242 242 242 241 239 235 232 230 228 226 225 224 225 225 225 227 229 231
227 232 242 239 237 236 219 222 220 212 210 201 202 199 191 200 189 185 210 237 264 233 252 281 291 293 298 301 299 296 295 296 302 297 294 293 299 300 294 289 288 287 286 283 280 274 267 260 256 252 250 248 245 244 242 241 241 240 240 240 238 236 233 231 229 228 227 225 224 224 225 227 228 230
228 229 233 240 238 224 225 224 218 212 212 207 215 212 200 219 201 184 207 239 271 277 221 248 277 293 307 303 292 296 296 300 301 298 294 293 294 295 292 291 286 287 284 281 278 274 269 262 256 252 250 247 245 243 241 240 239 238 238 237 237 236 234 232 230 228 227 226 224 224 225 226 227 227
234 233 239 251 253 230 228 231 225 214 209 206 215 224 210 223 232 206 202 238 251 282 284 277 265 279 275 284 289 288 297 298 302 302 300 296 289 291 292 291 292 288 285 281 277 273 269 264 258 254 251 249 247 243 241 239 238 236 235 235 234 234 233 231 229 228 228 227 225 225 225 225 225 225
232 239 243 250 252 245 238 240 238 224 223 214 215 228 217 225 233 221 209 223 254 266 278 267 291 290 290 273 287 290 287 290 295 296 295 298 297 290 290 290 290 289 285 282 278 273 268 263 259 254 252 250 247 244 241 239 237 235 234 233 233 232 232 230 228 227 226 226 226 225 225 225 225 225
227 233 243 250 247 244 243 249 245 243 235 229 227 233 232 225 236 234 218 217 233 248 277 284 281 289 295 285 279 279 283 288 292 290 291 289 290 292 290 288 287 286 284 282 280 276 268 262 258 253 249 248 245 242 240 237 235 233 232 231 231 231 230 229 228 227 225 224 224 225 226 226 226 225
229 233 234 246 246 239 243 252 252 246 242 237 233 239 239 233 238 242 234 236 223 242 258 278 276 280 277 274 278 280 294 298 287 284 288 293 294 293 288 287 285 286 287 287 284 279 270 262 257 252 247 244 243 240 237 235 233 231 230 228 228 228 227 228 227 227 227 224 223 223 225 226 227 225
226 226 234 242 241 240 235 247 248 249 248 246 241 243 246 243 242 243 247 243 240 239 255 266 284 282 283 288 280 279 278 293 300 295 286 288 292 293 297 291 291 289 288 292 288 285 282 270 257 253 246 241 239 238 236 233 230 229 227 226 224 224 224 225 226 226 227 226 224 222 222 224 225 225
229 229 234 240 238 238 238 243 246 247 250 247 249 243 243 246 245 252 256 249 239 246 262 270 269 279 277 274 285 286 284 277 279 294 301 293 290 292 291 295 293 289 285 278 275 274 274 273 269 254 244 239 236 234 233 231 229 228 226 225 223 223 224 223 224 225 225 225 224 223 221 221 222 223
236 234 233 236 238 235 239 237 247 240 249 247 254 254 249 252 247 251 250 248 252 260 263 266 275 276 284 284 273 281 281 283 279 264 292 300 305 300 295 285 292 293 288 287 286 276 272 270 260 254 250 242 234 231 231 231 228 226 225 223 222 222 221 222 222 223 223 223 222 222 221 219 219 220
243 243 239 240 240 238 240 240 240 241 237 239 251 258 240 242 243 247 243 245 253 262 265 272 269 274 277 278 288 290 288 288 291 295 290 288 291 291 295 293 279 276 283 282 276 275 270 270 265 255 244 238 233 233 229 232 230 228 226 223 222 221 220 220 221 221 221 221 220 220 220 219 218 218
242 242 242 244 243 242 244 247 249 249 250 247 239 248 249 242 239 239 242 249 254 260 267 271 274 278 278 281 280 283 278 281 286 287 288 289 294 296 290 285 277 272 266 277 276 272 267 264 267 255 248 244 227 227 222 224 223 225 223 222 221 220 220 219 220 220 221 220 219 218 218 218 218 217
255 248 243 246 251 249 248 248 248 249 250 252 251 246 244 239 226 232 242 253 257 259 263 268 273 275 274 274 278 280 283 278 278 285 289 291 295 298 303 302 300 256 235 264 277 279 268 264 270 266 255 248 234 222 223 218 220 223 218 216 216 217 217 217 217 217 218 218 218 218 217 217 217 216
253 257 260 254 246 243 238 241 250 252 254 252 251 251 248 245 236 229 229 248 260 255 260 267 271 278 277 281 283 279 280 279 284 287 291 288 290 293 289 286 286 289 285 282 278 275 272 262 265 269 262 253 243 229 221 219 220 219 219 216 216 216 216 216 215 215 215 215 216 216 215 215 215 215
253 261 269 280 270 255 248 250 248 250 261 259 254 258 263 260 252 245 237 233 239 256 261 265 273 272 278 281 274 268 271 282 292 294 291 288 286 282 282 280 283 283 280 275 270 274 273 260 257 259 257 254 247 238 225 221 218 218 216 217 217 215 215 215 215 215 215 214 214 214 214 213 212 212
254 259 268 272 282 281 269 257 259 258 250 258 270 269 259 258 265 260 248 242 238 238 244 256 264 269 263 262 267 271 280 289 290 294 291 291 289 286 279 280 279 278 273 265 272 269 266 253 254 255 258 253 249 240 232 223 220 218 217 216 215 215 214 214 214 214 214 213 212 211 211 211 210 210
246 255 258 261 264 274 273 260 253 260 257 254 262 265 267 263 262 263 262 248 239 237 232 241 251 261 264 262 267 275 280 282 283 282 285 287 286 283 282 277 268 268 259 253 251 258 263 248 245 249 250 250 248 241 236 228 221 218 218 217 216 214 214 213 213 213 212 212 210 209 210 209 209 209
240 242 251 255 261 263 267 269 267 261 261 259 261 265 269 272 270 267 255 256 254 251 253 252 255 261 267 271 277 283 285 284 281 282 284 286 283 284 286 283 280 265 258 227 231 247 253 243 243 251 245 248 251 243 237 226 219 218 217 218 216 214 213 213 212 211 210 210 210 209 209 208 207 206
250 245 242 240 254 262 262 267 271 275 245 245 251 259 267 272 278 278 282 248 249 255 259 262 266 269 274 277 278 276 272 268 272 284 289 285 287 291 292 288 283 276 265 234 215 232 247 236 231 245 241 243 250 247 234 225 214 214 216 215 214 211 211 211 210 210 209 209 209 209 208 206 204 202
256 253 258 258 251 258 265 275 288 284 235 242 247 258 270 282 280 279 294 308 299 286 279 274 269 267 267 269 270 269 268 275 281 285 284 285 293 290 289 290 289 285 268 247 201 222 232 234 219 233 247 254 244 241 235 224 219 212 216 214 211 210 209 208 209 208 209 208 207 207 204 203 197 189
268 280 287 275 268 265 279 305 303 275 228 234 238 245 262 274 278 283 327 320 314 316 316 304 302 294 289 286 292 294 292 288 285 278 275 286 290 292 292 289 290 287 273 237 189 214 226 219 220 198 226 238 242 224 225 220 218 207 200 210 215 212 207 207 206 206 207 206 207 206 201 196 180 173
294 282 285 289 286 283 282 279 276 204 196 219 234 231 239 266 280 322 318 304 301 298 298 296 300 298 301 299 294 292 292 291 291 291 286 284 285 288 290 288 281 277 275 262 181 204 222 213 222 190 210 220 235 196 200 216 212 206 193 196 202 210 207 207 208 208 206 207 207 204 197 185 177 173
279 289 285 285 290 293 288 260 219 209 225 233 238 227 240 250 287 321 305 303 297 296 303 303 303 301 302 300 295 292 293 292 295 297 292 290 285 286 290 289 283 275 261 243 187 196 213 203 216 191 206 216 239 227 219 215 208 205 195 191 202 195 179 196 197 202 211 211 208 200 190 181 183 182
271 264 274 282 291 310 324 265 234 242 245 216 216 225 232 283 307 304 291 295 306 306 307 307 307 310 309 308 304 299 299 299 299 301 297 294 292 288 286 285 282 276 262 223 185 195 201 206 202 197 201 204 221 222 234 232 214 210 197 197 201 184 177 182 186 195 185 186 191 192 189 185 186 190
271 281 280 282 290 307 304 287 272 255 205 188 228 256 302 296 302 303 314 319 318 312 314 313 312 312 311 310 310 309 307 305 304 302 298 297 300 300 299 295 288 270 260 233 193 197 196 210 191 201 201 200 211 195 213 221 227 185 198 196 194 178 176 170 184 191 184 182 193 186 185 186 190 194
271 276 281 291 300 297 293 291 272 202 185 214 274 296 288 313 338 337 332 331 321 319 312 314 314 313 312 310 308 309 308 303 304 302 299 302 304 305 310 313 309 286 264 236 205 202 195 201 203 202 204 195 205 210 209 212 212 191 195 186 183 171 165 176 184 185 182 176 169 154 149 169 190 186
272 296 301 295 292 294 293 112 116 113 233 302 314 315 302 349 358 347 341 331 327 323 323 318 312 307 310 306 299 300 301 302 304 308 311 310 310 313 323 325 322 308 285 255 218 208 205 205 214 206 197 205 209 211 213 216 195 205 190 165 181 176 169 181 178 181 179 168 180 159 179 176 167 184
311 303 301 324 10 92 85 99 78 72 66 58 28 21 19 13 354 349 341 339 337 325 318 317 316 311 308 309 305 302 305 309 314 318 318 321 324 333 335 330 329 330 308 270 235 207 203 211 220 234 234 206 203 213 212 213 214 200 184 189 166 111 182 171 182 182 172 173 161 174 180 183 177 164
322 323 330 60 68 75 74 69 62 49 37 31 17 12 357 352 349 346 353 339 325 317 316 314 311 310 305 299 307 320 324 321 320 323 320 322 324 330 328 319 322 336 341 330 276 248 219 212 216 212 229 226 203 207 204 198 216 185 192 185 160 185 189 185 177 170 170 178 134 129 158 181 183 194
311 311 12 58 50 53 48 43 37 26 26 28 11 1 350 348 344 351 345 327 311 296 288 290 296 302 312 321 322 321 322 319 321 328 327 327 322 323 325 326 335 339 340 350 1 0 334 294 251 220 212 211 212 199 187 194 205 183 187 200 204 192 134 176 175 184 170 150 146 180 182 183 180 180
321 51 58 49 50 46 48 38 30 14 7 12 357 352 347 350 347 349 357 354 340 326 324 324 324 320 323 321 321 321 321 325 327 330 327 325 328 322 328 328 334 341 338 340 356 356 343 327 292 235 215 225 218 180 161 170 196 187 189 180 192 196 175 182 183 166 138 141 163 164 183 195 188 180
65 65 82 60 69 67 61 55 39 22 355 357 358 357 358 359 356 358 350 342 330 324 323 318 319 322 324 323 326 325 325 323 328 331 333 327 330 329 332 332 338 341 340 345 353 352 347 328 322 285 82 74 61 33 74 188 189 203 198 190 166 207 193 174 179 168 166 181 169 167 184 193 202 195
64 85 78 59 52 57 69 67 21 20 1 13 359 356 347 345 353 354 343 338 328 327 324 323 320 318 324 323 325 327 327 324 324 329 334 332 334 332 331 335 340 342 340 344 350 354 344 337 322 264 138 129 85 68 50 30 190 181 189 185 183 193 190 174 177 177 177 182 170 183 188 197 202 199
55 70 97 87 64 44 30 31 21 6 353 359 4 351 350 353 353 355 341 329 326 321 327 328 329 326 325 326 326 325 322 324 324 329 332 340 334 333 335 336 332 335 339 345 347 349 352 4 354 274 183 157 136 132 44 49 59 31 92 206 181 186 180 177 185 182 181 181 183 187 186 196 204 196
95 78 81 75 48 34 27 5 15 4 348 353 2 355 351 343 343 336 323 322 322 330 324 320 317 322 322 324 327 326 326 331 331 332 334 334 334 337 338 329 332 342 342 343 347 351 360 11 19 15 315 182 183 154 96 348 53 53 33 343 327 201 187 189 193 194 190 185 190 189 196 197 204 196
115 109 87 71 52 11 23 31 26 17 350 353 0 353 351 336 333 330 324 342 338 331 328 328 327 329 327 327 331 331 328 326 325 329 332 333 338 339 339 330 332 343 337 338 351 358 2 13 27 23 6 299 209 146 130 37 14 11 5 250 197 311 283 208 215 201 190 188 193 194 186 197 204 200
99 102 96 86 58 38 33 28 28 6 351 356 360 358 350 345 339 342 345 346 336 332 329 333 340 335 331 330 329 330 328 331 334 334 332 335 338 335 336 336 334 343 340 351 356 1 8 20 22 23 22 11 18 25 85 105 67 346 19 30 5 247 343 234 223 201 192 191 206 192 201 136 52 126
114 105 104 91 68 52 55 33 11 359 15 10 352 5 10 351 345 341 343 345 339 336 333 336 338 337 335 334 329 327 327 328 329 328 330 331 333 335 339 339 337 342 341 358 3 3 10 14 15 16 23 16 18 46 79 97 118 67 45 32 25 39 353 269 269 179 185 187 173 176 179 141 167 125
109 102 110 126 95 38 53 30 4 24 25 13 7 7 12 353 348 348 337 344 340 338 342 340 339 337 333 331 331 333 332 332 333 333 334 334 334 337 336 339 343 349 346 357 358 360 5 1 1 7 26 18 355 289 13 58 47 26 35 36 27 39 47 49 51 56 81 24 181 186 177 181 170 155
141 150 175 96 84 72 75 54 21 26 17 12 17 11 355 3 357 353 348 348 343 341 342 341 339 335 334 331 331 333 335 335 334 335 336 337 337 338 342 352 348 344 347 340 336 342 334 341 349 7 24 29 24 33 46 44 48 26 15 8 18 36 53 56 58 59 58 22 96 140 136 128 99 154
148 162 134 95 95 79 63 54 38 32 17 11 15 11 8 0 352 359 355 350 343 346 344 337 334 332 330 330 332 334 335 338 337 334 334 338 341 340 341 341 340 335 334 330 324 329 336 334 347 2 18 32 31 35 41 39 35 26 15 13 19 7 33 51 60 62 60 55 51 57 353 162 154 177
159 148 99 96 97 88 70 56 45 28 21 12 17 5 9 0 353 353 341 341 343 341 331 333 332 332 331 330 331 334 342 340 334 334 337 336 338 338 337 338 343 342 347 352 343 347 341 346 357 360 22 24 19 31 32 29 31 25 14 9 5 19 34 25 39 54 56 50 40 35 35 61 78 74
164 134 116 113 116 108 100 98 71 50 34 21 17 3 11 354 354 348 345 346 344 336 334 336 332 331 331 334 339 341 338 338 337 334 335 339 343 346 348 348 350 347 355 351 349 354 348 347 0 8 25 23 19 26 30 38 32 24 19 14 7 9 26 26 38 45 51 53 29 31 35 49 76 77